Theta_e
327 327 328 328 328 328 328 328 328 328 328 328 328 328 328 328 329 330 331 332 331 330 329 329 329 328 328 328 328 327 324 324 326 325 323 324 325 323 320 319 321 323 323 324 325 325 325 325 324 324 322 319 318 319 318 317 316 313 311 315 316 316 315 313 311 312 313 312 312 313 313 313 312 311
327 327 328 328 328 328 328 328 328 328 328 328 328 328 328 327 328 329 331 332 331 330 330 329 329 329 328 328 328 328 326 325 326 326 325 325 326 325 323 320 320 322 323 323 324 324 324 324 324 324 323 320 319 319 318 316 316 313 310 315 317 315 315 311 308 311 314 312 313 313 313 312 310 307
327 328 328 328 328 328 328 328 328 328 328 328 328 328 327 327 327 328 329 331 331 329 329 329 329 329 328 328 328 329 327 326 325 326 326 326 326 326 324 322 321 321 322 323 324 324 324 324 324 324 323 322 321 320 317 316 316 312 310 315 317 315 315 311 306 310 314 312 312 313 313 312 310 305
328 328 328 328 329 329 328 328 329 329 328 328 328 328 327 327 327 327 328 330 330 329 329 329 329 329 329 329 329 329 328 327 327 327 327 327 326 326 326 324 323 322 321 322 323 324 323 324 324 324 323 323 321 320 317 317 317 312 309 314 317 316 316 313 307 308 312 313 311 310 311 311 308 303
328 328 328 328 329 329 329 329 328 328 328 328 328 328 327 327 327 327 327 328 329 328 328 329 329 330 329 329 328 329 329 328 328 328 328 328 327 327 327 325 325 323 321 321 322 323 323 323 324 324 324 323 322 320 318 318 316 311 308 312 316 316 315 315 311 306 308 310 306 302 302 302 300 298
328 328 328 328 328 329 329 329 328 328 328 328 328 328 328 327 326 326 327 327 328 328 328 329 329 329 329 329 328 328 328 328 328 328 328 328 327 327 327 326 326 325 323 321 321 322 323 323 324 324 324 324 322 320 319 319 316 310 306 310 315 316 315 316 313 307 305 304 299 296 296 296 296 296
328 328 328 328 328 328 329 328 328 328 328 327 328 327 327 327 327 326 326 327 327 327 327 328 328 329 328 329 328 328 328 328 327 328 328 327 327 327 327 327 327 326 325 323 321 322 323 323 324 323 324 324 322 319 319 319 316 312 307 309 314 315 314 315 313 307 303 300 296 295 296 295 296 295
328 328 328 328 328 328 328 328 328 328 328 327 327 327 327 327 327 326 326 326 326 326 326 326 327 327 327 328 328 328 328 328 327 328 327 326 326 327 327 327 327 326 326 324 322 322 322 323 324 323 324 324 321 320 319 318 317 314 309 308 312 315 314 314 313 308 304 299 296 296 296 295 296 296
327 327 327 327 327 328 328 328 328 327 328 328 327 327 327 327 327 326 326 326 326 325 325 325 326 327 327 327 327 327 328 327 326 327 326 325 326 327 326 325 325 326 326 325 323 322 322 322 323 323 324 323 321 320 319 319 318 316 311 308 311 314 314 314 313 310 305 300 296 297 297 296 296 296
325 326 326 326 326 327 327 328 327 327 328 328 328 327 327 327 327 327 326 326 326 325 325 325 325 326 327 327 327 327 327 327 325 325 325 325 325 326 325 324 324 326 326 324 323 323 322 322 323 324 323 323 322 320 319 318 318 315 311 308 310 313 314 314 313 310 305 300 297 297 298 298 297 298
323 323 324 324 325 325 326 327 327 327 327 327 328 328 327 327 327 326 326 326 326 326 326 325 325 325 326 326 326 326 326 326 325 324 324 323 323 324 325 323 323 325 326 324 323 323 323 323 324 323 323 322 322 320 318 318 317 315 311 308 310 312 313 313 311 307 304 302 299 298 299 298 298 298
320 321 322 321 322 323 325 326 326 326 326 326 326 327 327 326 326 326 326 325 326 325 325 325 324 325 325 326 326 326 325 325 324 324 324 323 322 323 323 323 323 323 323 323 324 323 323 324 324 322 322 322 322 321 318 317 317 315 311 308 309 310 311 311 308 304 302 302 300 299 300 300 300 300
316 317 318 318 319 321 323 325 325 325 325 325 325 325 326 326 326 326 325 325 325 325 325 324 324 324 325 325 325 325 325 325 324 323 323 322 322 322 322 321 322 322 321 322 324 324 324 324 323 321 321 321 321 319 317 316 316 315 311 308 308 309 309 308 306 303 301 301 300 301 302 303 303 303
314 315 316 316 317 318 320 322 323 323 323 323 322 322 323 324 325 325 325 325 325 325 325 325 324 324 324 324 325 325 324 324 323 322 322 322 321 321 320 319 319 320 321 321 323 323 323 323 322 320 320 320 319 317 315 315 316 314 310 307 307 308 308 306 304 303 302 301 302 303 304 304 305 305
312 313 313 313 314 315 316 317 317 318 318 319 319 319 320 321 322 322 324 325 325 325 325 324 324 324 324 324 324 324 324 323 323 322 322 322 321 320 320 318 317 318 320 321 320 319 319 319 318 316 318 319 317 314 313 315 315 312 308 306 308 309 308 306 304 304 304 303 304 305 306 307 307 307
310 311 311 311 311 312 313 314 314 314 315 315 316 316 317 317 318 318 320 321 323 324 324 324 323 323 324 323 323 323 323 322 322 322 322 321 320 320 319 317 316 317 319 320 318 314 314 315 315 314 315 316 314 312 313 313 310 307 306 307 309 309 308 307 305 305 305 306 306 307 308 308 307 307
308 309 309 309 309 310 311 312 312 313 313 313 313 314 315 315 315 316 317 318 320 321 322 323 322 321 322 322 322 323 323 322 322 321 321 321 320 320 319 318 317 317 317 318 316 312 312 313 313 312 312 312 312 312 311 310 306 305 307 309 310 310 309 308 307 307 307 308 308 308 307 306 306 305
306 307 307 307 307 308 309 309 310 310 310 310 310 310 310 310 311 313 315 316 317 318 319 319 318 317 319 320 320 321 321 321 321 320 320 320 320 319 319 318 318 317 317 317 316 311 310 313 313 311 311 311 312 311 310 309 308 307 308 309 310 310 309 309 309 309 308 307 306 305 304 304 303 303
305 306 306 306 306 306 307 307 308 309 308 308 307 307 306 306 307 307 309 310 311 312 313 314 314 314 315 317 318 319 319 320 320 319 319 319 319 319 318 317 317 316 316 317 316 310 307 311 312 309 309 311 311 311 311 310 310 309 310 310 310 310 310 309 308 307 305 304 303 302 302 302 302 302
304 304 305 306 306 306 306 306 307 307 307 307 306 306 306 305 305 305 305 307 308 309 310 310 311 311 312 314 315 316 317 318 319 319 318 317 317 317 316 315 315 315 315 316 316 310 305 309 310 306 306 309 309 309 310 310 310 310 310 309 308 308 307 305 304 302 302 301 301 301 302 302 302 302
303 304 304 305 306 306 306 307 307 306 306 306 305 305 305 305 304 304 304 305 307 308 308 309 310 310 310 312 313 314 315 316 317 317 316 316 316 315 314 313 313 314 314 315 317 313 306 307 310 305 304 306 305 305 306 307 308 309 307 305 304 303 302 301 301 301 301 301 301 301 301 301 301 301
302 303 304 304 304 305 306 307 307 306 306 305 305 305 304 304 303 303 303 304 305 306 307 308 309 309 309 310 311 312 313 313 314 315 314 314 315 314 312 312 311 311 312 313 316 313 306 306 309 305 302 302 300 300 301 302 303 304 302 301 301 301 301 301 301 301 301 300 300 301 301 301 301 300
301 302 302 303 303 303 304 305 306 306 305 304 304 304 304 303 303 302 301 302 302 303 303 304 305 305 306 308 309 310 311 311 312 313 313 314 315 312 310 310 310 310 309 310 313 311 305 305 307 306 303 300 297 297 298 299 299 300 300 300 300 300 300 300 299 299 299 298 298 298 299 299 299 298
300 300 300 301 301 302 303 303 303 304 304 303 302 303 303 303 302 301 301 300 301 301 301 301 302 302 303 304 305 306 308 309 310 311 311 312 313 311 309 309 310 309 307 308 310 310 306 304 306 306 305 301 298 297 297 297 298 299 299 299 299 298 298 297 297 296 296 296 296 296 296 297 296 296
298 298 299 300 300 301 301 302 302 302 302 301 301 301 301 301 301 301 301 301 301 301 301 301 301 301 301 302 302 303 304 305 307 309 310 310 310 310 309 309 309 307 306 306 308 308 306 305 304 304 303 300 298 296 296 296 296 297 297 297 296 296 296 295 295 295 294 294 294 294 295 295 296 295
297 297 297 299 300 301 301 301 301 301 301 301 300 300 300 300 300 301 301 301 301 301 301 301 301 301 301 301 301 301 301 302 304 305 307 308 308 308 309 309 308 306 305 305 306 306 305 304 303 302 300 298 297 296 296 295 295 295 295 295 295 295 295 295 294 294 294 294 294 295 296 296 296 295
296 296 297 298 300 300 300 300 301 300 300 300 300 300 300 300 300 300 301 301 301 301 301 301 301 301 301 301 300 300 300 301 301 302 303 304 305 306 306 306 306 306 305 305 305 306 305 304 302 302 300 298 297 296 295 294 293 294 294 294 294 294 294 294 294 294 294 295 295 296 296 296 295 295
296 295 296 297 299 299 300 300 300 300 300 299 299 300 299 299 300 300 301 301 301 301 301 301 301 301 301 300 300 300 300 300 300 301 301 302 302 302 303 303 304 304 304 305 305 305 305 304 302 301 300 298 296 295 293 293 293 293 293 293 293 293 293 294 294 295 296 296 296 296 296 296 295 294
295 296 296 296 296 297 297 298 298 298 298 298 298 298 298 298 299 300 300 300 300 300 300 301 301 301 300 300 299 299 299 299 299 300 300 300 301 301 301 301 302 302 302 303 303 303 304 303 302 300 299 298 296 294 293 292 292 293 293 293 293 293 293 294 295 296 296 297 297 296 295 295 293 292
296 296 296 296 296 296 296 296 297 297 297 297 297 297 297 297 298 298 299 299 299 299 300 300 301 301 300 300 299 299 299 299 299 299 299 300 300 301 301 301 301 301 301 302 302 302 302 302 301 300 298 296 295 294 293 293 293 293 293 293 293 293 294 294 295 296 296 296 296 295 294 293 293 292
295 295 295 295 296 296 296 296 296 296 296 296 296 296 296 296 297 297 297 298 298 299 299 300 300 300 300 300 300 299 299 299 299 299 299 300 300 300 300 300 300 300 300 300 301 301 300 300 300 299 297 295 294 293 293 294 293 293 293 294 294 294 294 294 295 295 295 295 295 294 293 293 293 292
294 294 294 295 295 295 295 295 296 296 296 296 295 295 296 296 296 296 296 297 297 298 298 299 299 300 300 301 300 300 299 299 299 300 300 300 300 300 300 300 300 299 299 299 299 299 299 299 298 298 296 295 294 293 293 294 293 293 294 294 294 294 295 295 295 295 294 294 294 293 293 293 292 292
293 293 294 295 295 295 295 295 295 295 295 295 295 295 295 295 296 296 297 296 297 297 297 298 298 299 300 300 300 300 299 299 299 299 300 300 300 300 300 300 299 299 298 298 298 298 298 297 297 296 296 295 295 294 294 294 294 294 294 294 294 294 295 295 295 295 294 294 294 294 293 293 292 292
292 294 294 294 294 295 294 294 294 294 294 294 295 295 295 295 296 296 296 296 296 296 297 297 297 297 298 299 300 300 299 299 298 299 299 300 300 300 299 299 299 298 298 298 298 297 297 296 296 296 295 295 295 295 295 295 295 295 295 295 295 294 294 295 295 294 294 294 294 294 294 293 292 292
293 294 294 294 294 294 294 294 293 293 293 293 293 294 294 294 295 296 296 296 296 296 296 296 296 296 297 298 298 298 299 299 299 299 299 299 300 299 299 299 299 299 299 299 298 298 297 296 296 295 295 295 295 295 295 295 295 295 295 295 296 295 294 294 294 294 294 294 294 295 295 294 293 292
293 294 294 294 294 294 294 294 294 294 293 293 293 293 293 293 294 295 296 296 295 295 295 295 295 296 296 296 297 297 297 298 299 299 299 299 299 299 299 299 299 299 299 299 299 299 298 298 297 296 296 296 296 296 295 295 295 296 296 296 296 295 295 295 294 294 294 294 294 294 294 294 293 292
293 294 294 294 294 294 294 294 294 294 294 293 293 293 293 293 293 294 295 295 295 295 294 294 294 295 295 296 296 296 296 297 297 298 298 298 298 298 298 298 298 299 298 298 298 298 298 298 298 298 298 298 297 296 296 295 294 295 295 295 295 295 294 295 295 295 295 295 294 294 294 294 293 293
293 293 294 294 294 294 294 294 294 294 294 293 293 293 293 292 293 293 294 294 294 294 293 293 293 294 294 295 295 295 295 295 296 296 297 297 298 298 298 298 298 298 298 298 298 298 298 298 298 298 298 298 297 296 296 295 294 294 293 293 294 294 293 294 295 295 295 294 294 294 294 294 293 293
293 293 293 294 294 293 293 293 293 294 294 293 293 293 293 292 292 292 292 292 293 293 293 293 293 293 293 294 294 295 295 295 295 295 295 296 296 297 297 298 298 298 298 298 298 298 298 298 297 297 297 297 297 296 296 294 294 293 291 291 292 293 293 294 294 294 294 294 294 293 293 293 293 293
292 293 293 293 293 293 293 293 293 293 293 293 293 293 293 292 292 291 291 291 292 292 292 292 292 292 292 293 293 294 294 294 294 295 295 294 295 295 296 296 297 297 297 297 297 298 298 297 297 297 296 296 296 295 294 293 292 292 291 290 291 292 293 293 293 293 293 293 293 292 292 293 293 292
292 292 292 293 293 293 293 293 293 293 293 293 293 293 293 293 292 292 292 292 292 291 291 291 291 292 292 292 292 293 293 293 294 294 294 294 294 294 294 295 295 296 296 296 296 296 295 295 295 295 295 295 294 294 294 293 293 292 291 291 291 292 292 292 292 292 292 291 291 291 291 291 292 292
291 291 291 291 292 292 292 293 293 293 293 293 293 293 293 293 293 293 292 292 292 292 291 291 292 292 292 292 292 292 292 292 292 292 292 293 293 294 294 294 294 294 294 294 294 294 293 293 294 295 295 294 294 295 295 294 293 292 291 291 291 291 291 290 290 290 290 290 290 290 290 290 290 290
291 291 290 290 290 291 291 292 292 292 292 292 292 292 292 292 293 293 293 292 292 292 291 291 292 292 292 292 292 292 292 292 292 291 291 292 292 292 293 293 293 293 293 293 293 292 292 292 293 294 295 294 294 295 294 293 292 291 291 291 291 290 290 289 289 289 289 289 289 289 289 290 290 290
291 291 290 290 290 290 290 290 290 290 289 289 289 290 291 291 292 292 292 292 292 291 291 291 291 291 291 291 292 291 291 291 291 291 292 292 292 292 292 292 292 293 293 292 292 293 292 292 292 293 294 294 294 294 294 293 292 291 291 291 291 290 290 290 289 289 289 289 289 289 289 289 289 289
290 290 290 290 290 289 289 289 289 288 288 287 287 287 288 288 289 290 291 292 292 292 291 291 290 290 290 290 291 291 291 291 291 292 292 291 291 291 291 291 291 292 292 292 292 292 292 292 292 293 293 293 293 293 293 292 291 291 291 291 290 291 290 290 290 290 290 290 289 289 289 289 289 289
Wind_Speed
17 18 17 17 17 17 17 19 20 20 21 23 25 25 23 17 9 6 8 8 9 17 20 18 21 26 30 27 23 26 30 30 29 29 29 27 26 27 26 26 27 26 24 22 20 20 19 23 26 25 23 23 24 22 20 18 16 15 17 19 19 20 20 18 18 17 15 16 16 16 17 18 18 16
16 16 16 16 16 17 17 18 19 19 20 22 23 24 25 24 17 9 7 7 9 15 19 18 18 22 27 29 26 24 27 31 31 30 31 28 26 28 27 26 27 27 25 23 22 22 19 20 25 27 26 25 24 21 18 17 16 15 18 21 21 21 20 17 17 18 17 18 17 17 17 17 16 15
14 14 15 15 15 15 16 16 17 19 19 21 22 22 22 25 25 19 10 5 9 16 19 18 18 19 22 26 26 22 25 31 32 31 31 28 27 29 28 27 27 27 27 25 23 23 21 19 21 25 28 28 25 21 17 17 16 16 20 24 22 21 20 16 16 20 20 19 18 17 17 16 15 14
13 14 14 15 14 14 14 15 16 17 18 18 20 21 22 24 26 25 17 7 7 15 19 17 17 18 19 23 24 23 23 26 30 32 30 27 28 30 29 29 28 27 28 27 25 24 23 21 18 19 25 30 26 21 18 16 15 16 20 24 23 22 20 16 15 19 21 19 18 17 18 17 16 15
13 13 14 14 13 13 13 14 15 16 15 16 18 19 20 22 23 24 21 12 7 12 17 17 16 17 18 21 23 23 22 24 28 30 26 25 28 30 30 31 31 29 28 28 26 25 24 22 20 17 21 30 28 22 18 16 15 16 20 24 23 22 21 17 15 16 19 19 17 17 17 17 17 16
12 12 13 13 13 11 12 13 14 14 14 14 15 18 19 20 22 23 23 18 10 11 16 17 15 16 18 20 21 22 23 26 28 27 24 24 27 29 29 31 33 31 30 29 27 27 25 23 21 17 19 29 31 24 19 17 15 16 19 23 23 21 21 19 16 15 18 19 16 16 16 16 16 16
11 10 11 11 11 10 10 11 12 13 13 13 14 16 19 19 20 23 23 19 12 11 14 16 15 16 19 20 20 21 22 25 27 25 23 24 26 28 29 31 34 33 31 30 28 27 26 23 22 18 19 29 31 24 20 17 14 15 18 22 23 22 21 19 17 16 18 18 15 15 15 14 15 15
10 9 9 10 10 10 10 10 11 11 12 13 14 15 17 18 19 21 22 20 15 11 12 15 16 17 19 20 19 19 20 22 26 25 21 23 27 29 28 28 30 32 33 30 28 28 26 24 23 19 19 27 30 25 21 17 14 15 17 21 24 23 21 20 17 16 17 17 15 14 15 14 14 14
11 10 10 10 11 11 10 10 9 10 11 12 14 15 16 17 17 18 21 21 18 15 13 15 17 17 17 18 18 21 21 18 22 25 22 24 28 28 26 24 24 29 33 31 28 28 26 24 24 21 20 27 30 25 22 18 14 15 16 20 24 23 21 20 17 16 17 17 15 14 14 14 14 14
12 12 11 11 11 11 11 10 9 9 9 11 13 15 16 16 15 16 20 20 18 18 16 15 18 18 17 18 17 21 24 19 19 22 19 21 26 26 26 25 23 28 33 32 29 28 26 25 26 23 21 27 30 26 23 19 15 15 16 19 23 23 21 20 17 16 17 17 15 13 14 14 14 14
14 13 13 13 13 12 11 10 9 9 9 10 10 12 13 14 15 15 18 18 17 17 15 14 18 19 19 19 16 18 22 20 19 21 19 19 22 24 25 25 24 28 33 34 31 29 27 25 25 24 23 28 30 26 24 21 16 14 15 19 22 22 21 20 17 16 18 18 16 14 14 14 15 15
16 15 14 14 15 14 12 11 10 9 9 10 10 10 11 13 15 15 15 15 15 15 13 13 15 16 16 16 15 15 19 19 19 23 23 20 20 22 22 21 22 25 30 33 31 28 27 24 24 25 26 29 29 26 23 20 15 13 15 18 20 20 19 19 17 17 18 18 17 15 15 15 15 15
16 17 16 16 17 15 11 9 8 8 8 9 9 9 9 10 13 15 15 15 15 14 15 15 15 15 14 15 15 17 20 21 21 24 23 21 21 22 19 16 17 22 27 31 31 29 27 25 24 26 29 30 29 26 23 19 16 13 14 17 19 19 18 17 17 17 18 18 17 16 16 16 16 15
19 19 18 18 19 18 15 12 10 8 6 5 5 6 6 6 9 11 13 15 15 14 14 14 14 14 14 16 20 21 21 21 21 22 23 21 21 22 18 12 12 20 26 30 29 28 26 26 26 27 29 30 29 27 23 20 17 15 14 16 18 18 16 16 16 17 18 17 17 16 16 16 15 15
19 20 19 19 21 21 20 19 17 15 14 12 9 7 6 5 3 4 5 9 13 14 13 11 12 13 13 16 19 19 19 20 21 24 25 23 22 22 16 11 11 18 26 28 26 22 20 23 24 24 26 28 27 23 20 18 17 14 14 16 17 17 16 15 16 17 17 17 16 16 16 15 15 15
19 20 20 21 22 21 20 20 21 21 21 20 18 16 13 12 10 7 6 4 5 9 11 11 12 13 12 13 17 18 18 20 22 23 24 24 24 23 18 13 12 18 25 27 23 17 14 18 19 19 21 23 22 18 14 13 13 13 14 16 16 16 15 15 15 16 16 16 16 15 15 15 14 14
22 22 23 24 24 22 19 19 20 21 23 24 25 24 22 21 19 15 12 10 5 2 4 5 6 7 7 8 14 18 19 21 22 23 23 24 24 23 20 17 17 20 22 24 23 18 13 16 17 17 17 15 15 14 11 9 10 11 13 15 15 15 14 14 15 15 15 15 15 14 13 13 12 12
23 24 23 23 25 25 23 21 18 18 20 24 27 30 32 32 30 26 22 19 14 10 6 5 4 2 4 4 7 12 15 18 20 21 23 25 25 23 20 18 19 21 20 22 22 15 11 15 18 17 16 13 13 14 11 8 8 9 10 12 13 14 14 13 14 13 13 13 12 11 9 8 8 7
22 21 21 23 26 28 28 25 21 18 19 22 24 27 30 33 36 37 33 29 24 21 18 15 13 9 5 3 3 5 8 10 13 15 16 21 24 24 21 17 18 19 17 19 18 12 10 14 17 14 12 13 13 13 12 10 10 9 9 11 12 12 12 11 11 10 9 8 7 7 6 6 6 6
25 24 25 28 30 30 29 28 27 25 25 25 25 25 24 27 33 37 36 33 31 28 26 23 19 16 11 7 4 1 2 4 8 10 10 14 21 24 20 15 14 15 13 13 14 12 12 12 14 13 11 11 12 11 12 12 11 10 9 10 10 9 8 8 8 7 7 7 7 7 7 8 9 10
33 33 32 33 33 31 29 29 29 29 28 26 26 24 23 27 31 33 34 36 35 33 32 29 26 22 17 13 10 8 7 5 3 8 11 16 22 22 16 11 10 11 11 10 11 11 12 11 12 14 13 10 11 10 10 10 9 9 8 8 8 8 8 9 10 10 10 10 11 11 11 12 13 14
35 36 34 34 34 32 30 29 29 30 27 25 23 22 23 27 29 29 32 36 37 37 38 36 34 32 28 24 20 14 12 10 7 9 13 15 18 19 15 11 11 10 10 11 11 10 13 13 15 15 14 11 11 10 10 10 9 9 10 10 11 12 13 14 14 15 15 14 14 13 13 13 14 16
35 35 34 33 33 32 31 30 31 32 29 25 22 20 22 25 25 26 31 35 36 38 41 40 40 40 38 36 33 26 20 16 13 12 12 12 15 18 16 13 12 8 6 9 11 12 14 16 17 15 12 8 9 9 11 13 13 14 15 17 18 18 19 20 19 18 17 16 15 14 13 13 15 17
32 34 34 33 31 31 32 31 31 32 31 27 23 21 22 23 21 22 29 34 35 37 39 39 40 41 41 41 41 38 33 28 22 17 15 14 15 18 16 14 11 7 5 8 11 11 15 18 17 14 10 8 8 10 11 14 16 18 21 23 24 23 23 23 22 20 19 18 16 16 15 15 16 18
28 31 33 33 30 30 31 31 31 32 32 32 30 28 27 26 23 22 25 28 30 33 34 35 36 37 38 39 40 40 40 38 33 28 25 22 20 18 16 14 13 10 8 10 11 10 13 17 17 13 11 13 15 16 16 15 16 19 23 26 27 25 24 24 23 22 21 19 18 18 17 16 17 18
25 29 32 33 31 30 31 31 32 33 33 34 34 32 31 32 31 29 27 25 25 25 26 26 28 30 31 32 34 35 36 37 37 36 33 29 26 23 20 17 16 14 9 8 8 6 7 13 15 13 14 18 19 20 20 18 18 21 24 25 25 23 22 23 24 23 21 20 19 19 18 17 17 17
26 29 32 33 33 33 34 34 34 34 35 35 35 34 33 34 33 32 31 28 25 24 24 23 23 23 23 24 26 28 30 30 31 33 33 32 32 30 28 25 23 19 13 8 6 3 3 10 13 12 17 24 23 19 18 18 19 21 22 21 21 21 21 22 22 21 20 20 19 18 17 16 16 17
30 31 31 31 32 33 35 35 36 36 36 35 35 34 35 35 33 29 28 27 26 26 25 24 23 21 21 22 23 24 26 26 26 27 29 30 31 31 31 29 28 25 20 16 13 9 6 10 12 12 17 25 25 21 18 18 18 20 20 19 19 19 18 17 16 17 18 17 17 16 16 16 16 15
32 31 30 31 32 33 34 35 35 36 35 35 34 34 35 35 33 29 26 25 26 27 25 23 22 21 23 26 26 26 27 27 26 26 27 27 27 28 29 30 29 28 25 21 18 15 10 9 13 15 20 24 25 24 24 22 20 19 20 19 17 16 15 13 13 14 15 15 15 15 15 15 13 11
30 30 31 32 32 33 34 35 35 34 33 34 34 34 34 34 33 30 27 25 25 24 23 23 22 21 22 25 28 29 29 29 28 27 26 26 25 24 26 28 28 26 24 22 18 15 12 11 14 18 22 24 25 26 28 27 23 20 20 19 17 15 13 12 12 13 14 14 14 14 13 12 11 8
29 29 30 31 32 33 33 33 33 33 33 34 33 32 32 32 32 31 30 28 26 23 22 21 22 21 22 24 25 26 27 27 28 27 26 25 22 20 21 23 23 21 20 20 18 16 15 15 14 16 21 26 27 26 27 28 25 21 19 18 16 13 11 11 13 14 14 14 15 14 13 11 9 7
28 28 29 30 30 31 31 29 27 28 30 31 31 31 30 30 30 31 30 30 29 26 24 23 23 22 21 21 21 21 23 25 26 25 25 24 22 20 20 21 20 18 17 17 18 18 18 16 15 17 22 27 28 27 26 25 22 19 17 14 11 11 11 12 14 15 14 15 15 14 13 11 9 8
29 29 29 29 27 28 28 28 26 26 26 27 29 30 29 29 30 30 30 29 29 28 27 27 26 24 22 20 19 19 21 22 23 23 23 22 21 20 21 21 20 18 17 17 18 20 21 19 19 21 24 26 27 28 26 22 16 15 14 11 10 11 10 10 13 14 14 14 15 14 13 12 10 9
28 27 26 25 24 23 25 26 26 25 26 26 26 27 28 28 29 30 30 29 29 30 29 29 29 27 24 21 19 18 19 19 21 23 22 20 19 20 21 20 19 19 18 18 18 19 20 19 20 21 23 25 24 23 22 19 15 12 12 9 8 10 11 10 11 12 12 13 14 14 13 12 12 11
26 21 20 20 20 20 22 24 24 24 25 25 24 24 26 27 27 28 29 28 28 29 29 28 28 27 24 22 20 18 16 16 18 19 19 19 19 19 20 19 18 18 18 18 16 16 16 17 18 18 19 19 17 15 14 16 15 12 10 7 6 8 10 11 10 9 10 11 12 13 12 11 12 12
21 17 17 17 17 17 19 20 21 21 22 22 22 22 23 24 25 25 26 26 27 28 28 27 27 25 22 21 22 21 18 16 16 16 17 17 17 17 17 17 16 16 16 16 15 14 13 14 14 15 15 14 12 10 9 11 12 10 8 7 6 7 9 9 9 9 8 9 12 15 13 12 12 13
17 15 16 16 15 16 16 17 18 19 19 19 21 21 21 21 22 23 23 24 26 27 27 26 27 26 22 19 20 20 19 18 17 16 16 16 16 15 14 14 14 14 14 13 12 12 12 11 11 11 11 9 7 7 8 8 8 8 8 7 6 6 6 6 7 8 7 7 11 15 14 10 10 12
15 14 15 14 14 15 15 16 17 17 18 19 20 20 19 20 22 22 22 23 24 24 25 25 25 26 24 21 19 19 18 18 18 18 17 16 15 15 14 12 12 11 11 11 10 9 10 10 10 9 8 7 6 6 8 8 7 7 7 6 4 5 5 5 6 6 6 6 8 11 11 9 9 11
15 14 13 13 13 14 14 15 15 15 17 18 18 19 20 22 23 22 22 22 22 22 23 23 22 23 24 21 18 18 19 18 17 17 17 16 15 14 13 12 11 10 9 9 8 7 7 8 9 8 7 7 6 6 7 8 7 6 6 5 4 5 6 6 6 6 7 7 8 9 8 8 9 10
15 14 13 12 12 12 13 13 13 13 14 16 17 18 19 21 22 23 22 21 21 21 21 22 21 22 22 20 17 16 17 16 15 14 15 15 15 14 12 12 11 10 9 9 8 8 7 5 5 6 6 5 6 6 6 7 7 6 5 4 4 7 8 6 6 6 7 7 8 8 7 8 9 9
12 12 12 11 11 11 11 11 12 12 12 13 14 16 18 19 20 21 20 20 20 20 20 21 21 21 22 21 18 15 15 15 14 13 12 12 14 14 13 12 11 11 10 9 9 8 7 5 3 4 4 4 4 5 5 5 6 6 5 4 4 7 9 7 4 5 6 7 6 6 7 7 7 8
11 11 11 11 10 10 10 11 11 11 11 11 11 12 14 15 16 17 17 17 18 18 17 17 18 18 18 17 15 15 15 15 14 14 13 12 12 12 12 11 11 10 10 9 8 8 8 7 4 2 2 1 1 2 3 4 5 5 6 6 5 6 7 6 3 4 6 7 6 6 6 6 6 6
10 10 11 11 11 10 10 10 10 10 10 10 10 10 10 11 13 13 13 14 15 15 14 13 13 14 14 13 12 12 13 13 13 14 15 14 13 12 11 11 10 9 8 7 7 6 7 7 5 2 1 1 1 1 2 3 4 4 6 7 7 6 6 6 5 5 6 6 6 6 5 5 4 3
8 9 9 9 9 10 9 9 9 9 10 10 10 10 9 9 10 11 11 12 13 13 12 12 12 12 12 11 11 11 12 12 12 12 12 12 12 12 11 10 9 8 8 7 6 5 5 5 4 2 1 1 0 0 1 2 2 3 5 6 7 7 7 7 7 7 6 7 7 7 6 6 5 3
8 7 7 8 8 9 9 9 9 10 10 10 10 10 9 8 8 8 8 9 10 10 11 11 11 11 11 10 10 10 11 10 10 10 10 11 11 11 11 10 9 8 8 8 7 6 5 4 3 2 1 1 1 1 1 1 2 2 4 6 7 7 7 7 7 7 7 8 10 11 10 10 9 8
Wind_Direction
288 287 284 276 270 270 267 263 264 261 253 248 243 236 229 228 231 229 219 211 208 209 205 203 208 211 212 211 210 211 209 210 210 204 204 206 207 209 208 206 204 203 203 204 206 209 204 197 194 193 193 191 192 199 206 207 204 200 184 174 178 183 185 186 178 169 169 174 177 175 173 177 179 178
292 289 285 282 274 270 269 267 266 263 254 246 244 240 235 231 231 235 228 215 205 200 200 203 201 202 207 210 212 209 206 211 212 207 207 208 208 209 208 206 206 205 204 205 207 209 209 204 197 195 196 196 196 199 203 203 201 198 184 177 184 191 194 194 179 168 177 188 189 186 184 185 186 184
291 289 284 281 277 270 269 271 269 262 255 249 247 245 238 232 232 235 236 226 209 196 196 205 205 198 199 204 208 206 205 211 212 209 210 210 211 212 209 207 208 208 207 207 208 208 209 207 200 199 200 198 196 196 197 198 198 195 185 181 189 196 200 202 185 175 185 195 195 193 193 194 194 194
295 290 290 286 280 277 273 272 270 264 259 253 250 247 240 233 232 234 235 240 216 199 199 205 206 202 198 198 203 203 202 208 211 210 210 209 212 214 211 209 210 210 209 208 209 209 209 208 205 206 205 200 196 193 194 197 199 197 189 187 193 201 203 206 196 187 189 195 199 199 198 201 204 204
301 294 295 292 285 282 279 276 272 266 263 256 250 248 241 233 231 231 232 237 224 200 202 205 205 203 198 197 202 201 198 203 207 208 207 207 212 214 210 209 211 211 209 208 209 210 210 209 209 212 209 202 196 192 193 197 200 200 196 193 197 203 206 208 208 198 193 196 200 202 202 205 207 207
308 303 301 298 293 287 280 278 275 268 262 256 249 246 240 234 231 228 228 228 215 191 196 203 203 200 198 199 202 200 198 201 204 204 202 204 211 212 209 207 209 210 210 209 209 210 210 210 212 214 211 204 196 190 192 196 200 203 202 199 200 204 207 211 214 207 199 199 202 204 204 205 205 204
323 319 313 307 302 296 286 281 278 273 266 257 253 250 242 237 233 228 226 223 208 181 184 196 200 198 203 206 205 205 204 203 204 202 199 201 207 210 209 207 207 209 209 208 209 211 210 211 213 215 214 206 197 190 190 194 203 210 205 203 203 205 209 213 215 210 203 203 204 204 203 202 201 201
335 331 324 316 310 303 295 287 281 280 274 262 260 257 247 241 235 229 225 223 215 197 186 196 204 205 209 211 210 208 206 204 205 202 196 201 209 213 211 208 209 209 207 207 208 210 210 211 211 214 216 205 195 189 190 194 208 214 206 205 206 207 211 215 215 212 207 207 206 203 204 202 201 201
346 342 334 325 322 316 306 299 292 285 275 264 260 257 249 243 239 233 228 225 220 213 203 199 204 209 209 208 210 209 203 197 201 202 201 206 213 214 207 201 205 207 204 204 207 208 210 212 211 213 211 200 192 190 192 196 210 215 207 206 207 208 212 215 217 216 211 209 207 204 203 203 202 202
2 356 350 341 334 325 313 307 306 298 284 271 261 257 254 248 244 237 231 225 215 211 211 201 197 203 204 201 203 208 205 195 191 195 198 204 208 206 198 193 200 204 201 200 204 205 206 211 214 212 201 194 193 192 193 197 209 213 207 204 205 208 212 215 218 217 212 210 209 206 206 207 206 205
14 10 7 1 354 343 330 322 318 316 308 296 279 268 263 256 251 243 233 226 213 207 210 203 199 200 200 199 198 203 205 201 194 189 183 185 194 197 196 194 198 202 201 199 201 203 204 210 217 211 195 190 194 193 193 198 206 210 205 203 205 208 212 215 218 215 211 211 211 210 211 212 211 210
20 19 17 13 10 2 345 332 325 321 314 310 306 294 277 263 254 246 237 229 220 210 206 206 206 202 198 199 198 195 194 193 195 193 185 179 179 186 193 196 198 201 200 196 197 200 202 210 217 208 194 191 193 194 194 197 203 207 203 202 204 208 212 215 215 211 209 211 213 215 217 218 217 215
23 22 23 24 25 21 3 345 335 324 311 306 312 311 295 273 256 246 240 234 227 219 213 211 207 200 196 194 189 187 190 194 198 195 188 183 179 178 182 187 197 203 197 191 191 194 199 208 211 202 193 190 191 192 192 195 202 206 203 202 204 207 209 211 211 211 210 212 216 219 222 224 222 219
31 30 31 30 32 34 30 25 20 11 359 343 332 327 314 287 263 249 238 230 223 217 215 213 204 198 199 197 193 192 194 197 197 190 185 184 179 174 170 169 188 198 192 185 183 188 198 205 201 192 189 189 189 189 190 195 201 203 202 203 203 204 207 209 210 211 212 215 221 224 228 230 230 229
35 34 35 35 36 40 45 48 48 48 46 45 42 34 26 12 334 294 261 236 223 216 215 213 205 203 205 203 202 202 196 194 194 191 188 183 174 169 167 162 175 189 189 182 175 178 191 195 189 182 182 184 185 187 192 197 202 203 202 201 201 204 209 210 211 213 216 221 227 231 235 239 242 244
37 37 38 40 41 43 48 54 57 58 57 56 55 53 50 46 41 30 12 331 251 228 224 222 216 219 223 214 208 207 200 193 191 190 189 183 178 175 172 167 171 181 185 179 165 155 165 173 170 165 167 174 179 186 194 198 199 201 200 198 201 206 211 212 213 216 220 226 232 237 242 246 249 250
43 43 42 43 45 48 50 53 56 60 62 62 61 61 61 58 56 52 44 35 19 309 251 241 230 236 247 234 218 214 208 199 192 189 188 185 183 179 172 171 174 175 176 169 151 131 134 152 150 142 146 160 174 179 181 184 188 193 196 198 203 210 214 217 218 221 227 232 237 242 243 243 242 240
46 46 46 45 48 53 57 56 53 55 60 62 62 62 62 61 60 58 53 49 46 46 48 42 29 345 293 272 238 223 214 203 194 191 191 189 186 176 167 170 172 169 169 165 149 120 115 144 143 135 142 156 167 169 168 170 177 183 192 201 209 215 218 221 224 228 231 233 234 232 229 226 225 222
47 45 47 51 54 57 60 61 60 60 61 62 61 60 59 59 60 59 57 55 55 57 59 58 52 43 17 335 278 234 220 206 200 202 202 192 178 160 148 147 154 160 165 164 150 114 104 143 140 125 137 155 158 165 173 178 181 185 195 206 211 215 219 221 223 224 220 213 206 200 194 190 185 176
54 53 54 58 61 62 63 67 71 72 70 68 65 61 59 59 60 59 60 61 62 62 63 64 63 61 57 57 60 83 190 208 219 220 204 173 154 138 126 120 130 145 157 166 159 125 106 134 132 111 121 145 147 157 172 175 179 192 205 205 199 200 203 199 192 182 170 161 150 144 144 143 141 136
60 61 62 64 64 63 65 70 74 73 71 68 66 63 61 62 61 59 61 65 66 67 67 67 67 65 65 68 69 72 79 77 184 189 160 147 139 127 117 112 118 133 148 166 174 141 114 134 138 114 111 125 126 134 151 156 166 183 189 176 164 161 158 149 143 135 127 122 119 119 122 124 125 124
62 63 65 66 67 66 66 68 71 72 70 66 63 61 60 61 58 56 60 64 66 67 69 68 69 68 67 68 68 67 71 73 93 132 133 137 132 117 111 118 120 126 140 156 171 147 125 146 153 128 110 98 90 101 122 130 140 152 150 141 135 134 130 124 119 115 112 109 108 111 115 121 126 126
64 64 65 66 68 69 68 66 67 70 71 67 63 62 62 60 56 55 60 64 63 63 64 63 64 65 64 66 67 67 70 76 85 103 115 123 119 110 110 117 115 110 126 149 165 155 141 153 160 147 129 97 72 86 109 118 126 135 137 133 128 125 123 119 115 113 112 111 112 113 119 127 131 129
63 64 64 64 67 69 69 68 68 70 72 71 67 65 65 64 62 60 63 65 64 63 62 60 60 60 60 62 64 65 68 73 79 90 97 96 99 107 113 113 103 90 117 155 169 164 155 159 161 157 150 132 111 106 107 112 119 128 132 130 125 123 122 118 116 115 114 115 117 119 122 128 130 129
62 62 64 65 66 68 69 70 70 72 74 75 73 72 72 72 72 68 64 64 64 63 62 60 59 59 58 58 60 60 63 67 71 77 81 83 89 97 100 99 95 93 121 162 175 170 163 164 162 153 135 123 122 120 112 107 111 119 124 124 121 120 121 119 118 117 116 117 120 122 123 125 126 126
63 64 66 68 69 70 71 71 72 73 75 76 76 76 76 75 73 70 66 63 62 61 61 60 58 57 57 57 58 59 60 62 66 69 73 77 82 83 82 84 89 91 109 152 170 168 161 161 160 151 129 120 122 121 113 107 109 114 116 117 119 121 122 122 120 119 121 124 126 126 125 125 124 122
69 70 72 73 73 73 73 73 74 74 74 75 76 75 75 73 70 67 64 62 60 60 60 59 57 56 55 56 58 61 64 65 68 70 73 75 77 78 78 79 82 84 91 111 121 103 139 157 160 156 140 131 125 117 110 108 112 115 112 113 120 123 122 122 122 124 128 130 130 129 126 123 120 117
78 77 77 78 77 76 76 75 74 74 73 73 73 73 72 70 66 62 59 57 58 57 56 56 56 54 55 57 59 63 68 72 74 76 78 79 79 79 78 77 77 77 78 81 80 71 96 149 157 156 148 139 129 120 119 119 118 120 119 119 123 124 123 125 128 130 132 132 132 133 129 123 120 118
83 83 82 81 79 78 77 75 74 72 71 70 70 69 69 67 64 60 57 56 57 57 55 55 56 57 61 65 67 68 71 74 76 78 81 83 82 80 78 76 74 72 70 70 72 73 83 124 142 144 145 143 136 128 126 124 121 124 126 125 123 123 123 128 134 135 135 136 136 134 129 123 121 118
86 84 83 81 79 77 76 75 73 72 70 69 67 65 65 64 63 62 59 57 57 57 56 55 55 59 65 69 69 68 68 69 72 75 78 79 77 75 75 75 72 69 68 69 73 81 91 114 136 141 136 133 132 130 128 125 122 124 128 127 124 122 124 132 142 143 140 140 138 133 129 126 123 120
84 83 82 81 80 78 76 74 72 70 69 68 65 63 62 63 64 64 64 64 62 59 56 56 57 59 64 68 67 64 64 65 68 72 75 76 73 69 70 73 70 66 67 71 79 92 103 112 129 140 133 126 125 127 128 127 125 125 129 129 126 128 135 143 148 149 147 145 142 138 137 136 132 131
85 83 82 79 77 75 71 67 65 64 64 65 65 64 62 62 64 66 67 66 65 63 60 59 59 58 61 63 63 62 63 65 66 68 71 72 71 69 70 71 70 67 67 71 81 95 103 106 113 128 132 129 128 128 127 125 124 127 131 131 132 140 150 153 153 154 155 154 152 150 150 148 145 145
84 79 75 71 68 66 65 62 60 60 60 61 62 63 63 61 62 65 64 63 64 65 63 62 60 60 60 62 62 63 64 64 66 67 68 68 69 70 71 72 72 73 73 74 82 92 98 101 108 119 125 127 130 133 129 123 124 133 137 136 141 149 156 164 164 165 167 166 162 161 161 160 159 158
79 73 70 67 63 62 62 62 60 59 60 60 60 61 63 64 65 66 66 66 66 67 66 65 64 63 62 62 63 65 65 65 66 67 66 66 68 71 74 75 75 77 79 82 89 94 96 99 104 112 119 123 128 133 133 129 130 140 141 138 143 151 157 164 168 174 182 182 175 168 166 166 167 166
76 70 67 66 63 63 63 62 61 59 60 60 59 59 62 66 69 69 69 69 70 69 67 66 65 64 62 61 64 67 67 66 66 65 64 66 69 72 75 78 79 80 82 88 95 99 101 103 105 107 113 119 120 122 132 138 140 142 144 147 154 163 170 175 177 184 197 199 189 177 168 166 169 170
75 70 69 67 64 64 63 62 61 60 58 57 58 58 60 64 69 71 71 70 70 69 67 65 65 63 60 59 61 63 63 64 64 62 61 64 68 73 77 80 82 83 84 89 96 100 101 107 114 116 119 122 121 119 135 151 153 149 153 162 170 177 185 193 197 203 213 212 198 188 184 179 176 174
74 71 70 69 66 66 65 62 62 60 57 57 58 57 58 62 68 72 73 71 70 70 68 67 66 65 62 59 59 60 60 61 61 60 59 61 64 70 75 78 81 83 86 91 95 94 91 94 106 116 119 123 126 126 138 157 166 163 159 164 178 186 187 195 205 211 214 211 200 197 199 194 180 175
73 72 71 70 69 68 67 65 63 61 61 61 61 60 60 64 70 76 77 75 73 72 71 69 67 67 66 63 59 58 58 60 60 59 58 58 62 65 68 71 73 78 84 90 91 87 83 84 91 102 110 113 113 122 140 157 172 175 168 165 181 199 194 194 199 197 190 186 190 198 203 200 187 184
72 71 71 71 70 68 67 66 64 63 63 64 63 63 64 67 71 75 76 77 77 77 75 72 69 68 67 65 61 60 60 59 58 58 56 56 57 61 64 66 67 71 77 80 81 81 78 76 80 87 94 96 99 114 133 144 150 164 178 182 189 194 191 186 182 176 168 162 165 174 185 192 191 188
71 70 70 70 70 69 67 65 64 64 64 64 66 68 68 70 72 73 73 76 78 77 76 74 71 68 66 63 60 61 61 59 58 58 58 56 55 55 58 62 63 67 71 71 69 70 66 64 81 91 80 75 92 110 120 124 129 143 166 179 178 177 175 168 167 169 164 161 162 163 166 173 177 179
72 70 69 69 68 68 67 65 64 64 63 64 67 70 71 71 73 73 73 76 78 76 76 75 73 69 65 62 59 58 60 59 57 56 57 58 56 52 52 56 59 61 65 65 64 61 50 40 75 121 98 76 104 130 132 129 131 135 135 138 161 174 171 165 170 178 169 164 169 171 165 163 169 177
75 73 71 69 69 70 68 66 65 64 62 63 66 68 70 73 75 74 72 74 77 76 74 74 73 69 65 61 58 57 57 57 56 54 52 54 54 52 50 52 52 54 60 63 62 55 42 37 51 112 129 104 141 158 134 114 116 124 128 133 148 168 171 166 169 178 171 165 164 162 159 162 176 188
77 77 75 73 72 72 71 70 68 66 66 67 69 69 68 70 73 73 69 69 72 71 69 69 71 71 68 63 59 59 58 57 57 57 54 51 50 50 50 47 44 46 53 60 59 52 43 41 49 90 163 181 203 173 112 102 113 132 141 145 147 155 166 169 166 169 175 175 171 169 170 179 194 204
83 82 79 76 75 74 73 73 72 71 71 72 72 72 69 67 71 74 73 72 72 71 70 69 69 70 69 65 61 62 62 59 58 58 56 53 50 48 46 43 38 37 35 33 37 41 39 37 44 73 123 112 56 90 112 127 148 153 150 152 156 161 171 178 181 188 201 211 214 212 210 212 219 225
91 90 86 84 82 80 80 80 78 78 78 76 72 71 70 69 68 71 76 80 79 76 75 75 74 72 71 69 67 67 65 60 56 55 53 52 50 49 45 39 35 34 27 18 16 18 17 19 30 49 80 96 94 109 143 198 225 193 164 163 172 180 184 190 197 208 215 222 230 235 233 231 236 241